Weather History for Erie, CO

Change the Weather History Date:

Monday, January 21, 2013

  Actual Average (KBJC) Record (KBJC)
Temperature  
Mean Temperature 34 °F -  
Max Temperature 58 °F 44 °F 71 °F (2009)
Min Temperature 10 °F 25 °F 2 °F (1991)
Degree Days  
Heating Degree Days 31    
Moisture  
Dew Point 7 °F    
Average Humidity 46    
Maximum Humidity 90    
Minimum Humidity 11    
Precipitation  
Precipitation 0.00 in - - ()
Sea Level Pressure  
Sea Level Pressure 30.12 in    
Wind  
Wind Speed 3 mph (West)    
Max Wind Speed 18 mph    
Max Gust Speed 24 mph    
Visibility 10 miles    
Events      
Averages and records for this station are not official NWS values.
T = Trace of Precipitation, MM = Missing Value Source: NWS Daily Summary

Daily Weather History Graph

Daily Weather History Graph

Search for Another Location

Airport:

Trip Planner

Search our weather history database for the weather conditions in past years. The results will help you decide how hot, cold, wet, or windy it might be!

Date:

Astronomy

Jan. 21, 2013 Rise Set
Actual Time 7:17 AM MST 5:06 PM MST
Civil Twilight 6:47 AM MST 5:35 PM MST
Nautical Twilight 6:14 AM MST 6:09 PM MST
Astronomical Twilight 5:42 AM MST 6:41 PM MST
Moon 12:48 PM MST (1/21) 2:47 AM MST (1/21)
Length of Visible Light 10h 48m
Length of Day
9h 49m
Waxing Gibbous, 75% of the Moon is Illuminated
Jan 21
Waxing Gibbous
Jan 26
Full
Feb 3
Last Quarter
Feb 10
New
Feb 17
First Quarter

Hourly Weather History & Observations

Time (MST) Temp. Windchill Dew Point Humidity Pressure Visibility Wind Dir Wind Speed Gust Speed Precip Events Conditions
12:16 AM 12.7 °F - 9.5 °F 87% 30.21 in 10.0 mi Calm Calm - N/A   Clear
12:36 AM 14.7 °F - 11.5 °F 87% 30.21 in 10.0 mi Calm Calm - N/A   Clear
12:56 AM 13.1 °F - 10.0 °F 88% 30.20 in 10.0 mi Calm Calm - N/A   Clear
1:16 AM 11.3 °F - 8.6 °F 89% 30.20 in 10.0 mi Calm Calm - N/A   Clear
1:36 AM 12.2 °F - 9.1 °F 88% 30.20 in 10.0 mi Calm Calm - N/A   Clear
1:56 AM 12.7 °F - 9.7 °F 88% 30.20 in 10.0 mi Calm Calm - N/A   Clear
2:16 AM 13.6 °F - 10.4 °F 87% 30.20 in 10.0 mi Calm Calm - N/A   Clear
2:36 AM 13.6 °F - 10.4 °F 87% 30.20 in 10.0 mi Calm Calm - N/A   Clear
2:56 AM 11.5 °F - 8.8 °F 89% 30.20 in 10.0 mi Calm Calm - N/A   Clear
3:16 AM 10.2 °F - 7.5 °F 89% 30.20 in 10.0 mi Calm Calm - N/A   Clear
3:56 AM 10.8 °F - 7.7 °F 87% 30.20 in 10.0 mi Calm Calm - N/A   Clear
4:16 AM 10.8 °F - 7.9 °F 88% 30.20 in 10.0 mi Calm Calm - N/A   Clear
4:36 AM 10.6 °F - 8.1 °F 90% 30.20 in 10.0 mi Calm Calm - N/A   Clear
4:56 AM 11.3 °F - 8.6 °F 89% 30.20 in 10.0 mi Calm Calm - N/A   Clear
5:16 AM 10.4 °F 4.0 °F 7.7 °F 89% 30.20 in 10.0 mi SSW 3.5 mph - N/A   Clear
5:36 AM 11.1 °F 3.1 °F 8.4 °F 89% 30.20 in 10.0 mi SSW 4.6 mph - N/A   Clear
5:56 AM 12.9 °F 5.2 °F 9.9 °F 88% 30.19 in 10.0 mi SSW 4.6 mph - N/A   Clear
6:16 AM 15.1 °F 5.2 °F 12.2 °F 88% 30.17 in 10.0 mi SSW 6.9 mph - N/A   Clear
6:36 AM 15.4 °F 8.1 °F 12.2 °F 87% 30.17 in 10.0 mi SSW 4.6 mph - N/A   Clear
6:56 AM 14.4 °F - 10.8 °F 86% 30.17 in 10.0 mi Calm Calm - N/A   Clear
7:16 AM 16.5 °F - 13.3 °F 87% 30.16 in 10.0 mi Calm Calm - N/A   Clear
7:36 AM 14.4 °F - 11.3 °F 88% 30.16 in 10.0 mi Calm Calm - N/A   Clear
7:56 AM 14.7 °F - 12.0 °F 89% 30.16 in 10.0 mi Calm Calm - N/A   Clear
8:16 AM 18.7 °F - 15.4 °F 87% 30.14 in 10.0 mi Calm Calm - N/A   Clear
8:36 AM 21.6 °F - 17.8 °F 85% 30.14 in 10.0 mi Calm Calm - N/A   Clear
8:56 AM 27.9 °F - 19.9 °F 72% 30.13 in 10.0 mi Calm Calm - N/A   Clear
9:16 AM 28.9 °F 21.1 °F 19.4 °F 68% 30.14 in 10.0 mi North 8.1 mph - N/A   Clear
9:36 AM 29.5 °F 22.5 °F 18.9 °F 65% 30.15 in 10.0 mi North 6.9 mph - N/A   Clear
9:56 AM 31.6 °F 28.3 °F 18.0 °F 57% 30.15 in 10.0 mi North 3.5 mph - N/A   Clear
10:16 AM 32.9 °F 28.5 °F 17.8 °F 54% 30.16 in 10.0 mi NNW 4.6 mph - N/A   Clear
10:36 AM 33.8 °F 29.6 °F 18.3 °F 53% 30.16 in 10.0 mi NNE 4.6 mph - N/A   Clear
10:56 AM 35.1 °F - 18.1 °F 50% 30.15 in 10.0 mi Calm Calm - N/A   Clear
11:16 AM 37.8 °F - 18.1 °F 45% 30.14 in 10.0 mi Calm Calm - N/A   Clear
11:36 AM 42.6 °F - 16.2 °F 34% 30.12 in 10.0 mi Calm Calm - N/A   Clear
11:56 AM 46.4 °F - 12.7 °F 26% 30.11 in 10.0 mi Calm Calm - N/A   Clear
12:16 PM 49.5 °F - 11.8 °F 22% 30.10 in 10.0 mi Calm Calm - N/A   Clear
12:36 PM 51.1 °F - 11.3 °F 20% 30.09 in 10.0 mi NW 3.5 mph - N/A   Clear
12:56 PM 52.3 °F - 11.1 °F 19% 30.08 in 10.0 mi WNW 4.6 mph - N/A   Clear
1:16 PM 53.8 °F - 10.9 °F 18% 30.08 in 10.0 mi Calm Calm - N/A   Clear
1:36 PM 54.5 °F - 10.2 °F 17% 30.07 in 10.0 mi Calm Calm - N/A   Clear
1:56 PM 55.0 °F - 8.1 °F 15% 30.06 in 10.0 mi Calm Calm - N/A   Clear
2:16 PM 56.8 °F - 7.7 °F 14% 30.06 in 10.0 mi West 6.9 mph - N/A   Clear
2:36 PM 57.2 °F - 7.9 °F 14% 30.05 in 10.0 mi WSW 3.5 mph - N/A   Clear
2:56 PM 58.1 °F - 6.3 °F 13% 30.04 in 10.0 mi West 8.1 mph - N/A   Clear
3:16 PM 57.2 °F - 5.7 °F 13% 30.03 in 10.0 mi SSW 6.9 mph - N/A   Clear
3:36 PM 57.7 °F - 4.6 °F 12% 30.04 in 10.0 mi SW 10.4 mph - N/A   Clear
3:56 PM 56.8 °F - 3.9 °F 12% 30.04 in 10.0 mi West 9.2 mph - N/A   Clear
4:16 PM 52.7 °F - 2.5 °F 13% 30.04 in 10.0 mi West 8.1 mph - N/A   Clear
4:36 PM 52.2 °F - 1.4 °F 13% 30.04 in 10.0 mi West 9.2 mph - N/A   Clear
4:56 PM 49.6 °F - -0.2 °F 13% 30.05 in 10.0 mi West 9.2 mph - N/A   Clear
5:16 PM 47.5 °F - -1.3 °F 13% 30.05 in 10.0 mi WNW 13.8 mph - N/A   Clear
5:36 PM 47.5 °F - -1.5 °F 13% 30.05 in 10.0 mi WNW 12.7 mph - N/A   Clear
5:56 PM 45.9 °F 40.4 °F -1.8 °F 14% 30.05 in 10.0 mi West 11.5 mph - N/A   Clear
6:16 PM 44.1 °F 39.0 °F -2.2 °F 14% 30.06 in 10.0 mi West 9.2 mph - N/A   Clear
6:36 PM 45.7 °F 41.0 °F -2.7 °F 13% 30.05 in 7.0 mi West 9.2 mph - N/A   Clear
6:56 PM 45.7 °F 40.6 °F -4.0 °F 13% 30.05 in 10.0 mi West 10.4 mph - N/A   Clear
7:16 PM 45.7 °F 41.0 °F -4.0 °F 13% 30.05 in 10.0 mi West 9.2 mph - N/A   Clear
7:36 PM 45.0 °F 40.6 °F -4.4 °F 13% 30.05 in 10.0 mi West 8.1 mph - N/A   Clear
7:56 PM 42.6 °F 38.4 °F -4.0 °F 14% 30.07 in 10.0 mi West 6.9 mph - N/A   Clear
8:16 PM 42.8 °F 38.0 °F -4.2 °F 14% 30.07 in 10.0 mi West 8.1 mph - N/A   Clear
8:36 PM 42.8 °F 36.2 °F -4.0 °F 14% 30.07 in 10.0 mi West 12.7 mph - N/A   Clear
8:56 PM 45.5 °F 38.1 °F -3.3 °F 13% 30.06 in 10.0 mi West 18.4 mph 24.2 mph N/A   Clear
9:36 PM 47.8 °F - -4.0 °F 12% 30.06 in 10.0 mi West 13.8 mph 19.6 mph N/A   Clear
9:56 PM 48.7 °F - -4.0 °F 11% 30.06 in 10.0 mi West 16.1 mph 20.7 mph N/A   Clear
10:16 PM 48.6 °F - -4.2 °F 11% 30.06 in 10.0 mi West 17.3 mph 23.0 mph N/A   Clear
10:36 PM 48.4 °F - -4.9 °F 11% 30.05 in 10.0 mi WNW 15.0 mph - N/A   Clear
10:56 PM 46.6 °F - -5.1 °F 12% 30.05 in 10.0 mi West 11.5 mph - N/A   Clear
11:16 PM 45.7 °F 39.8 °F -5.6 °F 12% 30.05 in 10.0 mi West 12.7 mph - N/A   Clear
11:36 PM 47.5 °F - -5.8 °F 11% 30.04 in 10.0 mi West 12.7 mph - N/A   Clear
11:56 PM 43.5 °F 39.4 °F -6.0 °F 12% 30.04 in 10.0 mi West 6.9 mph - N/A   Clear